Wind_Speed
17 17 15 15 16 16 14 13 13 14 16 19 22 25 27 27 26 25 26 29 31 32 32 32 33 35 36 37 37 38 39 40 41 42 42 42 42 43 43 44 44 45 45 46 46 47 48 49 49 49 49 49 50 50 51 51 51 52 52 52 53 54 54 55 56 56 55 54 53 50 47 44 42 39
17 16 14 14 14 15 16 16 15 15 17 19 23 27 28 28 27 26 27 29 30 29 29 30 31 33 34 34 34 34 35 37 37 38 38 38 39 40 41 42 43 43 44 44 45 46 47 47 47 47 47 47 48 48 49 49 49 49 50 50 50 50 50 51 51 52 53 53 54 54 54 53 51 49
17 17 16 16 16 16 17 18 17 16 16 16 20 25 27 26 26 27 28 28 27 27 27 28 29 31 31 30 30 31 33 34 35 35 36 36 37 37 38 39 40 42 42 43 43 44 44 45 45 45 45 45 45 46 47 47 47 48 48 48 49 49 48 48 48 48 49 49 49 50 51 51 52 52
19 18 18 17 17 16 16 17 18 19 17 16 19 23 24 23 24 25 26 26 26 26 27 27 27 28 28 28 28 29 30 31 32 32 33 34 35 35 36 37 38 39 40 41 41 42 42 43 43 44 44 44 44 44 45 45 45 45 46 46 46 46 47 47 46 46 46 46 46 46 46 46 47 47
21 20 19 19 18 16 15 15 16 17 18 17 20 22 21 20 20 21 23 24 24 24 25 25 25 25 25 25 26 27 27 27 28 29 30 31 32 33 33 34 35 36 37 38 38 39 40 40 41 42 42 43 43 44 44 44 44 44 44 45 45 45 45 46 45 45 45 45 44 44 43 43 43 42
21 20 20 19 19 18 17 16 15 14 13 13 15 18 18 18 18 18 19 20 20 21 22 22 22 21 21 22 22 23 24 24 24 25 26 27 28 29 30 30 32 32 33 34 35 36 36 37 38 38 39 40 41 42 42 43 43 43 43 43 43 44 44 44 44 44 44 44 43 43 42 41 41 40
20 20 20 19 19 18 18 18 17 16 14 11 11 13 15 15 15 16 17 18 18 18 19 19 19 19 19 18 19 19 20 20 20 20 21 21 22 24 26 27 28 29 29 30 32 33 33 34 34 35 36 37 38 38 39 40 40 40 40 41 41 41 41 41 42 42 42 42 42 42 41 40 39 38
19 19 19 19 19 18 18 17 17 16 14 13 12 12 12 12 13 14 15 15 15 15 15 16 16 16 16 15 15 16 16 16 16 16 17 18 18 19 21 22 24 25 26 27 28 29 30 31 31 32 33 34 35 36 36 37 37 37 37 37 37 37 38 38 38 38 39 39 39 39 39 39 38 37
18 18 17 17 17 18 17 17 15 14 13 12 12 12 11 12 13 13 13 13 13 13 12 12 13 13 13 13 12 13 13 13 13 14 15 17 17 17 18 19 20 22 23 24 25 26 27 28 29 29 30 31 32 33 34 34 34 34 34 34 34 34 34 34 34 35 35 35 36 36 36 36 35 34
19 18 17 16 16 15 16 15 14 13 12 11 11 12 12 12 11 11 12 12 11 11 11 11 10 10 10 10 10 10 10 10 11 12 13 15 16 16 16 18 19 20 21 22 22 23 24 25 26 27 28 29 30 31 32 32 32 32 32 31 31 31 31 31 31 31 31 32 32 32 32 32 32 32
19 19 18 17 15 14 14 13 13 12 11 10 10 10 11 11 10 10 11 11 10 9 8 8 7 7 7 6 7 7 7 8 9 9 10 12 14 15 15 16 17 18 20 20 21 22 23 23 24 25 26 27 28 29 29 30 30 30 29 29 29 28 28 28 28 28 28 28 29 29 29 29 29 29
18 18 18 17 16 14 13 11 11 11 10 9 8 8 9 10 10 10 10 10 9 7 6 5 4 3 3 3 3 4 5 6 7 8 9 10 11 13 15 15 16 17 18 19 20 21 22 23 24 25 25 26 27 27 28 28 28 28 27 27 26 26 26 25 25 26 26 26 26 26 26 26 26 26
16 16 16 16 16 14 13 11 10 9 8 8 7 6 6 7 9 10 10 10 10 9 7 5 4 2 1 0 2 3 4 6 7 9 10 11 12 13 14 15 16 17 18 19 20 21 22 23 24 25 25 26 27 27 27 27 27 26 25 25 24 24 24 23 23 23 23 23 23 23 23 23 24 24
14 15 15 15 15 13 12 12 10 8 7 6 5 5 5 5 6 8 10 11 12 11 10 8 7 5 5 5 5 5 6 7 9 10 12 13 14 15 15 15 16 17 18 19 20 21 22 23 23 24 25 26 26 26 27 26 26 25 24 23 23 22 21 21 21 21 21 21 20 20 20 20 20 21
9 11 11 12 13 12 12 12 11 10 8 6 5 3 3 3 4 5 8 10 12 13 13 13 12 11 10 10 10 10 10 11 11 12 13 14 14 15 16 17 18 18 19 20 21 21 22 24 24 25 25 25 26 26 26 26 25 25 24 23 22 20 19 19 19 19 19 19 19 18 18 17 17 17
3 4 6 7 7 7 7 8 9 10 10 9 7 5 3 1 1 3 5 7 9 12 14 15 16 16 16 16 16 15 15 15 16 16 16 17 17 18 19 20 20 21 21 22 24 25 25 25 26 26 26 26 25 25 25 25 25 24 24 23 22 21 19 18 18 18 17 17 17 17 16 15 15 15
4 4 6 9 7 5 2 2 4 8 9 9 8 7 6 5 3 2 3 5 7 9 12 14 16 17 18 19 20 21 21 21 21 21 21 21 21 21 23 24 25 26 26 26 27 28 29 29 28 28 27 27 26 24 23 23 23 23 22 22 21 21 20 19 19 18 17 16 16 16 15 14 14 13
12 13 15 19 17 10 5 2 1 2 4 5 7 8 7 6 6 6 4 3 5 7 10 12 14 16 17 18 20 22 23 24 24 24 24 25 25 25 25 26 28 30 31 32 31 31 32 32 31 30 30 28 27 25 23 22 22 22 21 20 20 20 20 20 19 18 18 17 16 15 15 14 14 13
18 19 20 21 18 11 7 6 5 4 3 1 2 4 4 4 5 6 6 6 6 7 7 8 10 12 14 15 17 19 22 23 23 24 25 26 28 28 27 28 29 31 33 34 34 33 33 33 33 32 31 29 27 26 25 24 23 23 22 21 20 20 20 20 20 19 19 18 17 15 14 14 14 14
21 21 22 22 19 14 12 11 11 9 7 6 5 3 2 2 3 3 5 6 8 9 10 10 10 11 12 13 14 16 18 19 20 20 20 22 23 24 25 25 26 27 29 32 33 34 32 31 30 29 28 28 27 27 26 26 25 24 24 22 20 19 19 20 20 20 20 19 18 17 16 15 15 14
24 23 24 24 22 20 18 16 15 14 13 12 11 9 8 9 9 9 9 9 9 11 12 13 14 14 15 15 15 16 17 18 18 18 18 19 20 21 21 21 20 21 23 25 27 29 31 30 29 28 26 25 25 25 25 25 26 26 26 25 23 20 18 18 19 21 21 20 19 18 18 18 17 16
28 26 25 25 25 24 22 20 19 19 18 17 16 15 14 14 16 17 17 16 16 16 16 17 16 16 17 18 18 19 19 20 21 21 21 21 22 23 24 24 23 22 22 22 23 24 27 29 30 30 29 27 24 24 24 24 25 27 28 27 26 24 23 21 20 20 20 20 20 19 19 19 18 19
33 30 28 26 26 26 25 24 24 25 24 23 22 22 21 20 20 22 24 25 25 25 23 22 21 21 21 21 21 21 22 23 23 23 24 24 24 25 26 28 29 29 29 29 28 27 26 27 28 30 32 31 28 26 26 25 25 26 28 29 29 29 28 27 25 23 22 21 20 20 19 19 19 19
37 34 32 30 30 30 29 29 28 29 30 30 30 29 29 28 28 30 31 31 32 33 31 29 28 27 27 27 27 26 27 27 27 27 27 27 27 28 28 29 31 32 33 34 35 34 32 31 30 30 32 33 33 31 30 29 28 28 28 29 30 31 31 31 30 29 27 25 24 22 21 20 20 20
41 39 37 36 35 35 35 34 34 35 36 37 37 37 37 37 38 39 39 38 38 39 38 36 34 33 32 31 30 30 31 32 33 34 34 34 33 33 33 33 34 34 35 36 37 39 39 38 37 36 35 36 36 36 35 34 33 32 31 31 30 31 31 32 32 32 32 31 30 28 25 23 22 22
44 44 43 41 40 40 40 39 39 40 41 42 43 44 45 46 46 46 45 45 45 45 44 43 41 40 39 37 35 35 35 36 37 39 41 41 41 40 40 40 40 40 40 40 40 41 41 41 42 42 42 41 40 40 39 39 37 36 36 35 35 34 34 34 34 34 34 34 34 33 31 29 27 26
46 47 47 45 44 44 44 44 44 45 46 47 48 49 50 51 51 51 51 52 52 51 51 50 49 48 47 45 43 42 41 41 42 43 44 45 46 46 47 47 47 47 47 48 48 47 45 44 44 44 45 46 45 44 44 43 42 41 40 40 40 39 38 37 37 37 36 36 36 37 36 34 33 32
48 49 49 49 49 49 50 51 51 52 53 53 53 53 54 54 54 54 54 55 56 56 56 55 55 55 54 52 51 50 49 50 50 50 50 50 49 50 51 51 52 52 53 53 53 53 53 52 49 48 47 47 48 48 48 48 47 46 45 44 44 44 43 41 40 40 40 39 39 39 39 38 38 37
55 54 54 55 55 56 57 58 58 57 57 56 57 57 58 57 57 57 56 57 58 60 60 60 59 60 60 59 58 57 57 57 57 57 57 56 54 54 54 55 56 56 57 57 57 57 58 58 57 55 52 51 50 50 51 51 51 50 48 48 48 49 48 46 45 44 44 43 43 42 42 41 41 41
62 62 62 63 64 64 64 63 62 61 60 60 61 61 61 61 61 60 60 60 60 61 62 63 63 63 64 63 63 63 62 62 63 63 63 63 61 59 59 59 60 60 60 61 61 62 63 63 63 62 59 57 55 53 53 54 55 54 52 51 51 52 52 50 49 49 48 48 47 46 45 45 45 45
67 67 68 68 68 68 68 68 67 66 65 65 65 64 64 64 64 64 63 63 64 64 65 66 66 67 67 67 67 67 67 67 67 68 68 68 67 66 65 65 65 65 65 64 64 65 65 66 67 67 66 63 60 58 57 57 58 58 57 56 54 55 55 54 53 53 52 52 51 50 49 48 47 47
68 69 69 69 69 69 69 69 69 68 68 67 67 66 67 67 67 67 67 67 67 68 68 69 69 70 70 71 71 71 71 71 72 72 72 72 72 73 73 73 73 73 72 71 69 69 68 69 69 71 71 70 66 63 60 60 60 61 61 61 60 58 58 57 57 57 56 56 56 55 54 53 51 49
70 70 69 69 69 69 69 70 70 70 69 69 69 69 69 69 69 69 70 70 71 72 72 72 73 73 74 74 74 75 75 75 76 77 77 77 78 79 80 81 81 80 79 77 76 75 74 73 73 74 75 75 73 69 65 62 62 62 63 64 64 63 63 62 61 60 60 59 59 60 60 59 58 55
70 69 69 68 67 66 67 68 69 69 70 69 69 69 70 70 71 71 72 73 74 75 75 76 76 76 77 77 77 78 79 80 81 82 83 84 85 86 87 88 88 87 86 84 83 83 82 81 79 78 78 78 78 77 73 67 64 64 65 66 66 66 67 66 65 64 64 63 63 63 64 65 64 62
72 71 69 67 66 65 66 66 68 69 70 70 71 72 73 73 74 74 75 77 78 77 77 78 79 79 79 80 80 81 82 83 84 86 87 87 87 88 90 92 94 94 93 92 91 90 89 88 86 83 81 81 80 81 81 77 71 68 68 69 69 69 69 69 69 68 68 68 67 66 67 68 69 68
83 81 79 77 75 74 74 73 73 74 75 75 77 78 78 78 78 78 78 79 80 80 80 81 81 81 81 82 83 84 85 85 86 87 88 88 89 90 94 98 100 101 100 99 98 97 96 96 94 90 87 84 82 82 84 85 82 77 74 73 73 73 73 72 72 72 72 72 71 71 70 71 73 74
90 88 87 86 85 85 85 85 85 85 85 85 85 85 85 85 84 84 83 83 83 83 84 84 84 84 84 85 86 87 87 88 88 90 91 93 95 98 102 105 106 107 106 105 104 104 103 102 100 97 93 89 86 85 86 87 89 88 85 81 78 78 78 77 76 76 77 76 76 75 74 74 75 77
94 93 92 92 92 93 93 93 94 94 95 95 96 95 95 94 94 93 92 91 90 90 90 90 90 90 90 91 91 92 93 94 95 97 99 101 104 107 109 110 111 111 111 110 109 109 108 106 104 102 99 95 93 90 89 89 90 93 94 91 86 84 84 83 81 81 81 81 81 80 79 79 79 80
102 101 102 102 103 103 103 103 103 104 105 105 105 105 105 104 104 103 102 101 100 99 99 99 99 99 99 99 100 101 102 103 105 106 108 110 111 113 114 115 115 115 115 114 113 112 111 109 107 105 103 101 99 97 95 93 92 93 96 97 95 91 89 87 86 85 85 85 85 84 84 84 83 83
113 113 114 114 114 114 115 115 115 115 115 114 113 112 111 111 111 111 110 109 109 108 108 108 108 108 108 108 109 110 111 112 113 114 115 116 117 118 119 120 120 119 118 116 115 114 113 112 111 109 108 106 105 103 100 98 96 96 97 99 99 98 96 93 91 89 89 89 88 87 86 86 86 86
122 122 122 122 121 121 121 121 121 120 119 118 117 116 115 115 115 114 114 114 113 113 114 114 115 115 116 116 117 118 119 120 120 121 121 122 122 123 123 123 121 120 118 117 116 116 116 115 114 113 111 110 108 106 104 102 100 99 99 99 100 101 100 99 97 94 92 92 92 91 90 89 88 88
126 126 126 125 125 124 124 124 124 123 122 121 120 119 119 119 118 118 117 117 117 117 117 118 119 120 121 122 122 123 124 124 124 124 124 124 124 123 123 122 121 120 120 120 119 119 118 117 115 114 113 111 109 107 105 104 103 102 101 101 102 102 102 102 101 100 98 96 95 94 93 92 91 90
128 128 128 127 127 127 127 126 126 125 124 123 122 122 122 121 121 120 120 120 119 119 119 120 120 121 122 123 123 124 124 124 124 124 124 124 124 123 123 123 123 122 122 121 119 118 117 116 115 114 113 112 111 109 108 106 105 104 104 103 103 104 104 103 103 103 103 101 100 98 97 96 94 93
130 129 129 129 129 129 128 128 127 126 125 124 124 123 123 122 122 121 121 121 120 120 120 121 121 122 122 123 123 123 123 123 123 123 123 124 124 124 124 124 123 122 121 119 118 117 116 115 115 114 114 113 113 112 111 110 109 108 107 106 106 106 106 106 106 106 105 106 106 105 103 101 99 97
131 130 130 130 130 130 130 129 128 127 127 126 125 125 125 124 123 123 122 122 122 122 122 122 122 123 123 123 123 123 123 123 123 124 124 124 124 124 124 123 122 122 121 120 119 118 118 117 117 116 116 115 116 115 115 114 113 112 111 110 110 110 110 110 109 109 108 108 109 110 110 108 106 104
Wind_Direction
88 91 90 89 88 86 88 87 82 74 66 67 75 75 70 69 72 77 79 83 88 89 87 85 85 85 85 84 82 81 80 80 80 80 79 79 78 78 77 77 76 76 75 74 72 71 70 69 69 68 67 67 67 66 66 66 65 65 64 63 62 61 61 61 61 61 61 61 61 62 62 62 63 63
82 87 89 90 90 88 86 82 77 76 75 75 76 75 73 71 76 83 88 92 94 91 88 88 89 90 89 86 84 82 81 80 79 79 78 77 77 77 77 77 77 76 74 73 72 71 70 69 68 66 66 65 65 64 64 64 64 63 63 62 61 60 60 60 60 60 61 61 61 61 61 62 62 62
74 77 81 85 89 90 87 81 75 74 78 78 78 79 77 78 84 92 96 97 95 90 89 91 92 91 90 87 85 83 81 80 79 79 78 77 77 76 75 75 74 74 73 71 70 69 68 67 65 64 63 62 62 61 61 61 61 61 60 60 59 59 58 58 58 58 59 60 61 61 61 61 62 62
75 75 78 79 82 85 84 80 74 70 74 84 89 87 85 86 92 99 102 102 98 94 94 95 95 93 90 89 87 84 83 82 81 79 77 76 74 73 72 70 69 68 68 67 66 65 63 62 61 60 58 57 56 55 55 55 56 56 56 55 55 56 56 56 56 56 57 57 58 59 59 60 61 61
77 79 80 79 77 78 77 78 80 75 74 84 93 93 92 97 102 106 107 106 102 100 100 100 98 95 92 90 88 86 84 83 80 78 75 72 70 69 68 66 65 64 64 63 62 62 60 59 58 57 55 53 52 51 50 50 50 49 49 49 49 49 49 50 51 52 53 54 55 55 56 57 58 58
78 80 82 81 79 78 76 77 80 82 81 85 89 92 97 104 109 111 111 109 106 105 102 100 98 95 92 90 88 86 83 81 79 75 71 68 66 65 63 62 62 60 60 60 59 58 57 57 55 54 53 51 50 48 47 46 46 45 45 45 45 45 45 45 45 45 46 48 50 51 53 54 55 56
80 83 85 85 83 81 80 78 77 81 87 87 87 93 102 109 114 116 115 112 110 107 103 99 97 96 92 88 86 85 82 79 77 73 68 65 63 61 58 57 56 55 55 55 55 54 53 52 51 50 49 48 47 46 45 44 43 43 42 42 42 42 42 43 43 43 43 43 43 45 46 49 52 54
79 83 86 88 88 86 85 85 83 83 85 87 90 98 106 116 125 125 120 118 116 112 108 103 100 99 96 92 88 85 82 78 74 68 62 60 59 57 52 50 49 48 48 48 48 48 47 46 45 44 44 43 42 42 41 41 40 39 39 39 39 39 39 39 40 41 41 41 41 41 42 43 44 47
76 78 82 87 91 92 90 89 90 89 90 93 96 103 111 126 137 136 130 128 127 124 120 113 107 104 100 95 91 86 81 76 69 63 57 55 54 51 47 43 41 41 41 41 41 41 40 39 38 37 36 36 36 35 35 35 35 35 35 35 35 36 36 36 37 37 38 39 39 40 40 40 41 42
74 77 80 83 86 89 92 92 91 92 94 100 107 113 122 135 146 148 147 143 136 130 126 120 112 107 100 93 88 81 76 70 62 55 50 48 48 46 42 39 37 36 36 35 34 33 33 32 31 30 29 28 28 28 28 28 29 29 29 30 31 31 32 32 33 33 34 35 35 36 37 38 38 38
73 76 79 82 83 85 89 92 94 95 97 102 114 128 140 150 158 163 162 157 148 137 130 124 116 107 97 88 78 69 62 55 48 43 38 36 36 36 36 35 33 31 30 28 26 25 24 23 22 21 20 18 18 19 20 20 22 23 24 25 25 26 26 27 28 29 30 31 31 32 32 33 34 34
71 74 76 79 82 83 85 88 92 97 100 103 114 135 152 164 173 179 182 180 174 165 156 148 140 125 104 80 58 43 36 28 24 21 17 17 19 21 24 26 25 23 22 19 18 17 16 15 13 12 10 9 9 9 10 12 14 16 18 20 20 21 21 22 23 24 25 26 27 27 27 28 28 29
71 72 72 73 75 76 79 83 85 90 98 105 112 127 152 174 188 194 198 201 202 202 199 195 195 199 205 305 347 350 352 352 353 353 355 357 360 3 7 10 11 11 11 10 9 7 6 6 5 3 2 1 0 359 0 3 6 10 12 14 16 16 17 18 19 20 21 22 22 23 23 23 23 23
74 73 71 71 71 70 70 72 74 77 85 97 110 125 143 169 194 208 214 218 221 224 227 231 237 247 260 278 295 307 317 324 328 334 339 343 345 348 351 354 356 356 357 357 357 357 356 355 355 353 353 352 352 352 352 353 356 360 3 7 10 13 14 15 15 16 17 18 19 19 19 19 19 18
77 74 71 71 72 71 70 69 67 68 69 69 79 101 133 165 194 215 226 231 236 240 245 250 255 261 267 274 283 292 299 306 311 317 322 327 330 332 334 337 341 342 342 342 343 344 344 343 342 342 342 342 342 343 344 346 348 350 352 355 359 3 7 9 10 10 10 10 11 13 14 15 15 14
78 74 66 66 71 72 71 72 70 69 68 62 57 56 58 80 227 239 244 245 244 245 249 254 258 262 267 271 277 283 288 294 300 305 309 314 317 318 320 321 323 326 327 328 329 330 331 331 331 331 333 334 334 334 334 337 339 341 343 345 347 349 353 356 359 0 0 0 0 2 4 6 8 8
293 305 324 326 324 332 359 68 81 77 75 71 63 56 47 41 28 333 283 264 258 258 260 262 263 264 266 269 274 278 281 284 289 294 298 302 305 309 311 313 315 316 317 318 318 319 320 321 322 324 327 328 330 331 331 332 333 334 335 336 336 338 340 342 345 347 348 349 349 350 351 353 354 355
290 296 309 317 314 309 306 288 234 97 84 79 76 70 55 42 36 28 13 330 290 281 279 277 276 277 276 275 276 278 280 282 285 288 290 293 296 299 302 304 307 309 310 311 312 312 312 314 316 318 320 322 324 326 327 328 328 328 329 329 330 330 331 332 334 336 337 338 338 339 339 339 340 339
287 292 300 311 309 293 278 272 256 235 220 196 99 86 70 48 33 21 9 356 343 329 314 299 291 291 292 290 287 286 286 287 287 288 288 289 291 294 295 296 298 300 302 304 306 307 307 308 310 312 314 316 317 316 316 317 318 318 318 320 322 323 323 323 325 326 327 327 328 327 327 326 326 325
280 285 291 298 295 277 264 260 252 241 232 228 226 233 263 310 328 342 341 336 333 333 330 324 316 311 306 303 301 298 295 295 295 295 294 294 294 296 297 297 297 298 298 300 302 304 305 305 306 307 309 311 312 310 309 308 308 308 309 310 311 313 314 316 317 318 318 319 319 318 317 315 313 311
269 276 283 290 289 279 269 262 258 254 246 238 237 245 261 280 292 300 306 309 311 313 313 313 315 315 314 312 310 308 306 306 306 306 304 304 304 304 304 304 304 304 303 303 304 306 307 307 307 306 307 308 308 307 306 306 306 305 305 305 304 303 303 306 309 309 310 311 311 311 311 309 307 304
262 267 275 283 285 281 273 265 265 266 262 254 249 250 257 271 283 291 296 298 300 301 301 301 301 302 305 307 308 309 310 311 312 313 312 311 310 311 311 310 310 309 306 304 303 304 306 307 307 307 307 308 307 306 303 303 304 305 305 304 303 300 299 298 299 300 301 302 303 303 303 303 303 301
258 261 267 273 276 274 269 265 267 271 271 267 262 261 263 269 276 285 290 293 295 297 296 296 295 293 295 297 298 300 302 305 307 309 311 312 314 314 316 316 316 314 310 305 302 301 301 302 303 305 306 307 308 307 305 304 303 303 305 305 304 302 301 299 297 296 295 294 294 294 294 295 296 296
258 259 261 265 266 265 263 265 270 275 277 275 272 269 270 272 277 282 285 287 291 293 293 291 291 291 292 293 294 294 295 297 300 302 303 304 307 309 311 312 315 316 315 311 307 304 301 298 297 297 299 302 303 304 304 305 305 304 303 303 303 303 303 302 300 299 296 294 292 290 288 287 288 289
257 258 260 262 262 261 260 262 268 274 278 279 278 276 275 276 279 282 283 284 287 290 290 288 287 288 289 290 291 293 294 294 297 300 301 301 301 302 303 305 308 311 313 313 312 309 305 302 298 295 294 294 295 296 297 299 301 302 302 301 302 302 303 303 302 301 299 297 295 292 288 285 283 283
256 257 259 260 260 260 260 262 265 270 274 277 278 279 279 280 281 282 282 284 286 287 287 286 286 286 287 287 288 290 292 294 295 297 300 301 301 300 301 301 303 305 307 309 310 311 309 306 302 299 296 293 292 291 291 292 294 295 296 297 298 299 301 302 302 301 300 298 296 294 292 289 286 284
257 257 258 258 258 259 261 263 266 269 272 274 276 277 279 279 280 281 282 283 284 285 285 285 284 285 286 286 285 287 290 294 296 297 298 299 299 299 299 300 300 301 303 304 306 308 309 308 306 302 298 295 293 291 289 289 289 290 291 291 292 293 294 295 297 298 298 297 296 294 293 292 290 288
258 258 259 259 260 260 262 265 268 271 272 273 274 276 277 277 277 278 280 281 282 282 283 282 282 283 284 284 284 285 287 290 294 296 297 297 297 297 298 299 299 300 300 301 303 304 305 307 308 306 302 298 295 292 290 289 288 287 288 288 288 288 288 289 290 291 292 293 293 292 292 291 289 288
259 259 261 264 265 266 267 268 270 272 273 274 275 275 276 276 275 276 277 278 279 279 280 279 279 280 281 282 283 283 285 287 290 292 294 295 296 295 296 297 298 299 299 299 299 300 301 303 304 306 305 302 298 294 292 290 288 287 286 285 285 285 285 286 286 286 287 287 287 287 287 287 287 285
261 262 265 268 269 270 270 271 272 273 273 274 275 276 276 275 274 275 276 276 276 277 277 277 277 277 278 280 280 281 283 285 287 288 290 292 293 294 294 295 296 296 297 297 297 297 298 299 300 301 302 303 301 297 293 292 290 288 286 285 284 284 284 284 284 284 285 285 284 283 283 282 283 283
263 265 266 268 268 269 270 270 271 272 273 273 274 274 274 274 273 273 274 275 276 275 275 275 275 276 276 277 278 279 281 283 284 286 287 289 291 291 292 293 294 294 294 294 294 294 295 295 296 297 298 299 300 297 294 292 290 289 288 287 285 285 284 284 284 283 283 284 284 283 282 281 280 280
262 263 265 265 266 267 267 268 269 270 270 270 271 271 271 271 271 271 272 273 274 274 273 274 274 274 275 275 276 277 279 281 282 283 285 287 288 289 290 291 292 293 293 293 292 292 292 292 293 293 294 295 296 295 293 291 289 288 288 287 286 285 284 284 284 283 283 283 283 283 283 281 280 279
261 262 263 264 265 265 265 266 266 267 267 268 269 269 269 269 269 270 270 271 272 272 272 272 272 273 273 274 275 276 278 279 280 281 283 284 285 286 287 289 291 292 292 291 291 291 291 291 291 291 291 291 292 292 291 289 287 286 285 285 285 285 284 283 283 283 283 283 283 284 284 282 281 279
261 262 262 262 261 261 261 261 262 263 264 265 266 267 267 268 268 269 270 271 271 271 272 272 272 272 272 273 274 275 276 278 278 279 281 282 283 284 285 287 289 291 290 290 290 290 290 290 290 289 289 289 289 289 289 288 285 284 283 282 282 282 282 282 281 281 281 281 281 282 283 283 282 280
257 257 257 257 258 258 258 259 260 261 261 263 265 266 267 268 269 269 270 270 270 271 271 271 271 271 271 272 273 273 274 275 276 277 279 280 281 282 283 285 288 289 290 289 289 289 289 289 289 288 288 287 286 287 288 287 285 283 281 281 280 280 279 279 280 279 279 279 279 280 281 282 282 280
256 255 255 255 255 256 257 258 258 259 260 261 263 265 266 267 268 269 269 269 270 270 270 270 270 270 270 270 271 271 272 272 273 275 276 277 278 280 282 284 286 288 288 289 289 289 289 289 289 288 287 286 285 284 285 287 287 285 282 280 280 279 278 277 277 277 277 277 277 277 278 279 280 280
257 257 256 256 257 258 258 259 260 261 262 263 263 264 265 265 266 266 266 266 267 268 268 268 268 268 269 269 269 269 270 270 271 272 274 275 277 279 281 283 285 286 287 287 288 288 288 288 288 288 287 286 285 283 283 284 286 286 285 283 281 280 279 278 277 276 276 275 275 275 275 276 277 277
257 257 257 258 259 260 261 262 263 263 264 265 266 266 266 267 267 266 265 265 265 265 265 265 265 265 266 266 267 267 268 269 270 271 272 274 276 278 280 282 283 285 285 286 286 287 287 287 287 287 287 287 286 285 283 283 283 284 285 285 284 282 281 280 279 277 277 276 275 274 274 273 273 274
258 258 259 260 261 262 263 264 265 265 266 267 267 267 267 267 268 268 268 267 267 266 266 266 265 265 266 266 267 267 269 270 271 272 273 275 276 278 279 281 282 283 284 284 285 285 286 286 286 286 286 286 286 285 284 283 282 282 283 284 285 283 282 281 280 279 278 277 276 275 274 273 273 272
261 262 263 263 264 265 266 267 267 268 268 269 268 268 268 268 268 268 268 268 268 268 267 267 267 267 267 267 268 269 270 271 271 273 274 275 276 277 279 280 281 281 282 282 283 283 284 284 285 285 285 285 285 285 284 283 282 280 280 281 283 283 283 282 280 280 279 278 277 277 276 275 274 273
264 265 265 266 267 267 268 268 269 269 269 270 270 270 270 269 269 269 269 268 268 268 268 268 268 268 268 269 269 270 271 272 272 273 274 275 276 277 278 279 279 280 280 281 281 282 283 283 283 284 284 284 284 284 283 283 282 281 280 280 280 281 281 281 281 280 279 278 278 277 276 275 275 274
266 266 267 267 268 268 268 269 269 269 270 270 270 270 270 270 270 270 270 270 269 269 269 269 269 269 269 270 270 271 271 272 273 274 275 275 276 276 277 278 278 279 280 280 281 282 282 282 282 282 283 283 282 282 282 281 281 280 280 280 279 279 280 280 280 280 279 278 277 277 276 275 275 274
267 267 268 268 268 268 269 269 269 270 270 270 270 271 271 271 271 271 271 271 271 271 271 271 270 270 270 270 271 271 272 272 273 274 274 275 275 276 276 277 277 278 279 279 280 280 280 281 281 281 281 281 281 281 280 280 280 279 279 279 279 279 279 279 279 279 279 278 277 276 275 275 274 274
267 268 268 268 269 269 269 270 270 270 270 271 271 271 271 271 271 271 271 271 272 272 272 272 271 271 272 272 272 272 273 273 274 274 274 275 275 276 276 276 277 277 278 278 278 278 279 279 279 279 279 279 279 279 279 279 278 278 278 278 278 277 277 277 277 277 278 278 278 277 276 275 274 273
267 268 268 268 268 269 269 270 270 270 271 271 271 271 271 271 271 272 272 272 272 272 272 272 272 272 272 273 273 273 274 274 274 275 275 275 275 275 276 276 277 277 277 277 278 278 278 278 278 278 278 278 278 278 278 278 278 278 277 277 277 277 277 276 276 276 276 276 277 277 277 276 275 274
Height
11008 11006 11005 11004 11003 11003 11003 11002 11002 11003 11004 11003 11003 11002 11002 11002 11002 11002 11002 11002 11003 11003 11003 11002 11001 11000 10999 11000 10999 10997 10995 10993 10991 10991 10991 10990 10990 10989 10988 10987 10987 10987 10986 10985 10984 10983 10981 10980 10979 10978 10977 10976 10975 10973 10972 10971 10970 10969 10968 10968 10966 10965 10963 10962 10960 10958 10956 10955 10953 10951 10949 10948 10946 10945
11011 11010 11009 11007 11006 11006 11005 11005 11005 11005 11005 11005 11005 11005 11005 11005 11005 11005 11005 11005 11005 11005 11005 11005 11005 11004 11003 11003 11002 11001 10999 10997 10996 10996 10996 10996 10995 10994 10993 10993 10992 10991 10991 10989 10988 10986 10985 10984 10983 10983 10982 10981 10980 10979 10977 10976 10975 10974 10973 10973 10972 10971 10969 10968 10966 10964 10963 10961 10960 10958 10956 10954 10953 10951
11015 11014 11012 11011 11010 11009 11008 11008 11007 11007 11007 11008 11008 11008 11008 11008 11008 11008 11008 11008 11008 11008 11008 11008 11008 11007 11006 11006 11006 11005 11003 11001 11001 11001 11001 11000 11000 10999 10998 10997 10997 10995 10994 10993 10991 10990 10989 10988 10987 10987 10986 10986 10985 10984 10982 10981 10980 10979 10978 10977 10977 10976 10975 10973 10972 10970 10969 10967 10966 10964 10963 10961 10959 10958
11017 11016 11015 11014 11013 11012 11012 11011 11011 11010 11010 11010 11010 11010 11010 11011 11011 11011 11011 11010 11010 11010 11010 11011 11010 11009 11009 11009 11009 11007 11006 11005 11005 11005 11005 11005 11004 11003 11002 11002 11001 10999 10998 10996 10995 10994 10992 10991 10991 10990 10990 10989 10989 10988 10987 10986 10984 10983 10983 10982 10981 10980 10979 10978 10977 10976 10975 10973 10972 10970 10969 10967 10966 10965
11020 11019 11018 11017 11016 11015 11014 11014 11013 11013 11013 11013 11013 11012 11013 11013 11013 11013 11013 11013 11013 11013 11013 11013 11013 11012 11012 11012 11011 11010 11010 11009 11009 11009 11009 11008 11008 11007 11006 11005 11004 11003 11002 11000 10999 10997 10996 10995 10994 10994 10993 10993 10992 10991 10990 10989 10988 10987 10986 10985 10984 10984 10983 10982 10981 10980 10979 10978 10977 10976 10974 10973 10972 10971
11022 11021 11020 11019 11018 11017 11017 11016 11016 11015 11015 11016 11015 11015 11015 11016 11016 11016 11016 11016 11016 11016 11016 11016 11015 11015 11015 11015 11015 11014 11013 11013 11013 11012 11012 11012 11011 11011 11010 11009 11008 11007 11005 11004 11002 11001 11000 10999 10998 10997 10997 10996 10996 10995 10994 10993 10992 10991 10990 10989 10988 10987 10986 10985 10985 10984 10983 10982 10981 10980 10979 10978 10977 10976
11024 11023 11022 11021 11020 11019 11019 11018 11018 11017 11017 11018 11017 11018 11018 11018 11018 11018 11019 11019 11019 11019 11019 11018 11018 11018 11018 11018 11017 11017 11016 11016 11015 11015 11015 11015 11014 11014 11013 11012 11011 11010 11009 11007 11006 11005 11004 11003 11002 11001 11000 11000 10999 10998 10998 10997 10996 10995 10994 10993 10992 10991 10990 10989 10988 10987 10986 10986 10985 10984 10983 10982 10982 10981
11026 11025 11023 11023 11022 11021 11021 11020 11020 11020 11020 11020 11020 11020 11020 11020 11020 11021 11021 11021 11021 11021 11021 11020 11020 11020 11020 11020 11019 11019 11018 11018 11018 11018 11017 11017 11017 11016 11016 11015 11014 11013 11012 11011 11009 11008 11007 11006 11005 11004 11004 11003 11002 11001 11001 11000 10999 10998 10997 10996 10995 10994 10993 10992 10991 10991 10990 10989 10988 10987 10987 10986 10985 10984
11028 11026 11025 11025 11024 11023 11023 11022 11021 11021 11021 11021 11021 11021 11022 11022 11022 11022 11022 11022 11022 11022 11022 11022 11022 11021 11021 11021 11021 11020 11020 11020 11020 11020 11019 11019 11019 11018 11018 11017 11016 11016 11014 11013 11012 11011 11010 11009 11008 11008 11007 11006 11005 11004 11004 11003 11002 11001 11000 10999 10998 10997 10996 10995 10994 10993 10992 10992 10991 10990 10990 10989 10988 10988
11029 11028 11027 11027 11026 11025 11024 11024 11023 11023 11023 11023 11023 11023 11023 11023 11024 11024 11024 11024 11023 11023 11023 11023 11023 11023 11023 11022 11022 11022 11022 11022 11022 11022 11021 11021 11021 11020 11020 11019 11018 11018 11017 11016 11015 11014 11013 11012 11011 11010 11010 11009 11008 11007 11006 11005 11004 11004 11002 11001 11000 11000 10999 10998 10997 10996 10995 10994 10993 10993 10992 10991 10991 10990
11030 11029 11028 11028 11027 11027 11026 11026 11025 11025 11024 11024 11024 11024 11024 11024 11025 11025 11025 11025 11025 11025 11025 11025 11024 11024 11024 11024 11024 11023 11023 11023 11023 11023 11023 11023 11023 11022 11022 11021 11020 11020 11019 11018 11017 11016 11015 11015 11014 11013 11012 11011 11010 11009 11008 11007 11006 11005 11004 11003 11002 11001 11001 11000 10999 10998 10997 10996 10995 10994 10994 10993 10993 10992
11031 11030 11029 11029 11028 11027 11027 11027 11027 11026 11026 11025 11025 11025 11025 11025 11026 11026 11026 11026 11026 11026 11026 11026 11026 11026 11025 11025 11025 11025 11025 11025 11024 11024 11024 11024 11024 11023 11023 11023 11022 11021 11021 11020 11019 11018 11017 11016 11016 11015 11014 11013 11012 11011 11010 11009 11008 11007 11006 11005 11004 11003 11002 11001 11000 10999 10998 10997 10996 10996 10995 10994 10994 10993
11031 11031 11030 11030 11029 11029 11028 11028 11027 11027 11027 11026 11026 11026 11026 11026 11026 11027 11027 11027 11027 11027 11027 11027 11027 11026 11026 11026 11026 11025 11025 11025 11025 11025 11025 11025 11025 11024 11024 11024 11023 11022 11022 11021 11020 11020 11019 11018 11017 11017 11016 11015 11014 11013 11012 11011 11009 11008 11007 11006 11005 11004 11003 11002 11002 11001 11000 10999 10998 10997 10996 10995 10994 10994
11031 11032 11031 11030 11030 11030 11029 11028 11028 11028 11027 11027 11027 11027 11027 11027 11027 11027 11027 11028 11028 11028 11028 11028 11027 11027 11027 11027 11026 11026 11025 11025 11025 11025 11025 11025 11025 11025 11024 11024 11024 11023 11023 11022 11021 11021 11020 11019 11019 11018 11017 11016 11015 11014 11013 11012 11010 11009 11008 11007 11006 11005 11004 11003 11002 11001 11001 11000 10999 10998 10997 10996 10995 10995
11031 11032 11032 11031 11031 11030 11030 11029 11029 11028 11028 11028 11028 11027 11027 11027 11027 11028 11028 11028 11028 11028 11028 11028 11028 11028 11028 11027 11027 11027 11026 11026 11025 11025 11025 11025 11025 11025 11024 11024 11024 11023 11023 11022 11021 11021 11021 11020 11019 11019 11018 11017 11016 11016 11014 11013 11012 11010 11009 11008 11006 11006 11005 11004 11003 11002 11001 11000 10999 10999 10998 10997 10996 10995
11030 11031 11031 11031 11031 11030 11028 11028 11028 11028 11028 11028 11028 11028 11028 11028 11028 11028 11028 11028 11028 11028 11028 11028 11028 11028 11028 11028 11028 11027 11027 11026 11026 11026 11025 11025 11025 11025 11025 11024 11024 11023 11023 11022 11021 11020 11020 11020 11019 11018 11018 11017 11016 11016 11015 11013 11012 11011 11009 11008 11007 11006 11005 11004 11003 11002 11002 11000 11000 10999 10998 10997 10996 10996
11029 11030 11030 11030 11030 11029 11027 11027 11027 11028 11028 11028 11028 11028 11028 11028 11028 11028 11028 11028 11028 11028 11027 11027 11027 11027 11027 11027 11027 11027 11027 11026 11026 11026 11026 11025 11025 11026 11025 11024 11023 11023 11022 11022 11022 11020 11019 11019 11018 11017 11016 11016 11015 11014 11014 11013 11012 11011 11009 11008 11007 11006 11004 11003 11003 11002 11001 11000 10999 10998 10998 10997 10996 10995
11028 11028 11029 11028 11028 11029 11028 11027 11028 11028 11028 11028 11028 11028 11028 11028 11028 11028 11028 11028 11028 11028 11027 11027 11026 11026 11026 11026 11026 11026 11025 11025 11026 11026 11026 11025 11025 11025 11025 11024 11023 11022 11021 11020 11020 11020 11018 11017 11017 11016 11015 11015 11013 11012 11012 11011 11010 11010 11009 11008 11007 11005 11004 11003 11002 11001 11000 11000 10999 10998 10997 10996 10995 10995
11026 11027 11027 11027 11026 11027 11028 11027 11027 11027 11027 11028 11028 11027 11027 11027 11027 11027 11028 11028 11028 11027 11027 11027 11026 11025 11025 11025 11025 11025 11024 11024 11024 11025 11025 11024 11023 11024 11024 11024 11023 11022 11020 11018 11018 11018 11018 11016 11015 11014 11014 11013 11012 11011 11010 11009 11008 11007 11007 11006 11006 11005 11003 11002 11001 11000 10999 10998 10997 10997 10996 10995 10994 10993
11024 11024 11024 11025 11025 11026 11026 11026 11026 11026 11026 11026 11026 11026 11025 11025 11025 11026 11026 11027 11027 11027 11027 11026 11026 11025 11024 11024 11023 11023 11023 11022 11022 11022 11022 11022 11021 11021 11022 11022 11022 11021 11019 11017 11016 11015 11015 11015 11014 11013 11012 11011 11010 11009 11008 11007 11006 11005 11004 11004 11004 11003 11002 11001 10999 10998 10997 10996 10995 10994 10994 10993 10993 10992
11020 11021 11021 11022 11023 11024 11024 11023 11023 11023 11023 11023 11023 11023 11023 11023 11023 11023 11024 11024 11024 11025 11025 11025 11025 11024 11023 11023 11022 11021 11021 11020 11020 11020 11020 11019 11019 11019 11019 11020 11020 11019 11018 11017 11015 11014 11013 11012 11012 11011 11011 11011 11009 11008 11006 11005 11004 11002 11002 11001 11001 11000 11000 10999 10998 10996 10995 10994 10993 10992 10991 10991 10990 10990
11016 11018 11019 11019 11020 11021 11021 11021 11020 11020 11021 11021 11021 11020 11020 11020 11020 11020 11020 11020 11021 11021 11022 11022 11022 11022 11021 11021 11021 11020 11019 11018 11018 11017 11017 11017 11017 11017 11016 11017 11017 11018 11017 11016 11015 11014 11012 11011 11010 11008 11008 11009 11009 11007 11006 11004 11003 11001 10999 10998 10998 10997 10997 10996 10996 10995 10993 10992 10991 10990 10989 10988 10987 10987
11012 11014 11015 11016 11016 11017 11018 11018 11017 11017 11018 11018 11018 11017 11017 11016 11016 11016 11016 11017 11017 11017 11017 11018 11018 11018 11018 11018 11018 11018 11017 11016 11015 11015 11014 11014 11014 11014 11014 11013 11013 11014 11014 11013 11012 11012 11012 11010 11009 11007 11005 11005 11006 11006 11005 11004 11002 11000 10998 10996 10995 10994 10993 10993 10992 10992 10991 10990 10989 10988 10986 10985 10985 10984
11007 11009 11011 11012 11012 11013 11013 11013 11014 11014 11014 11014 11014 11014 11013 11013 11013 11013 11013 11013 11013 11013 11013 11013 11013 11013 11013 11013 11013 11013 11013 11012 11012 11012 11012 11011 11011 11011 11011 11011 11010 11010 11010 11010 11009 11009 11009 11008 11007 11006 11004 11001 11001 11002 11002 11002 11001 10999 10997 10995 10993 10991 10990 10989 10989 10988 10987 10986 10985 10984 10984 10983 10982 10981
11003 11004 11006 11007 11007 11008 11008 11009 11010 11010 11011 11011 11011 11010 11009 11009 11008 11008 11008 11008 11008 11008 11008 11008 11008 11008 11008 11008 11008 11007 11007 11007 11007 11007 11007 11007 11007 11006 11006 11006 11006 11006 11006 11006 11005 11004 11004 11004 11004 11003 11002 11000 10998 10997 10997 10998 10998 10997 10996 10994 10992 10990 10988 10986 10985 10984 10983 10982 10981 10980 10979 10979 10979 10978
10997 10998 11000 11001 11001 11001 11002 11004 11005 11006 11007 11007 11007 11006 11005 11005 11004 11004 11003 11003 11003 11003 11003 11003 11003 11003 11003 11003 11003 11002 11002 11002 11001 11001 11001 11001 11001 11001 11000 11000 11000 11000 11001 11001 11001 11000 10999 10999 10999 10998 10997 10996 10995 10994 10993 10992 10992 10992 10992 10991 10990 10989 10987 10985 10983 10981 10980 10979 10977 10976 10976 10975 10975 10974
10992 10993 10994 10995 10996 10996 10996 10998 10999 11000 11000 11001 11001 11001 11001 11000 11000 10999 10998 10998 10997 10997 10997 10997 10997 10997 10997 10997 10996 10996 10996 10996 10996 10996 10995 10995 10995 10994 10994 10994 10994 10993 10994 10994 10994 10994 10994 10994 10994 10993 10992 10991 10990 10989 10988 10987 10987 10987 10986 10986 10985 10985 10984 10982 10980 10979 10977 10975 10974 10972 10972 10971 10970 10970
10985 10986 10987 10988 10990 10990 10990 10991 10992 10993 10993 10994 10995 10995 10995 10995 10995 10994 10993 10993 10992 10992 10992 10991 10991 10991 10991 10990 10990 10990 10990 10989 10989 10989 10989 10989 10989 10988 10987 10987 10987 10987 10987 10986 10986 10987 10987 10987 10987 10987 10987 10986 10984 10983 10982 10981 10981 10981 10980 10980 10979 10979 10979 10978 10977 10975 10974 10972 10970 10968 10967 10966 10965 10965
10977 10979 10980 10981 10981 10982 10983 10984 10984 10985 10986 10987 10987 10988 10988 10988 10988 10988 10988 10988 10987 10986 10986 10986 10985 10985 10984 10984 10983 10983 10983 10983 10982 10982 10982 10982 10982 10982 10981 10980 10980 10980 10980 10979 10979 10979 10979 10979 10980 10980 10980 10980 10979 10977 10976 10974 10973 10973 10974 10973 10972 10971 10972 10972 10972 10970 10969 10968 10966 10965 10963 10961 10960 10959
10968 10970 10972 10973 10973 10974 10974 10975 10976 10977 10978 10979 10980 10980 10981 10981 10981 10981 10981 10981 10981 10980 10979 10979 10978 10978 10978 10977 10976 10976 10976 10976 10975 10974 10974 10974 10975 10975 10974 10973 10973 10973 10973 10973 10972 10972 10972 10972 10972 10972 10972 10972 10972 10971 10970 10968 10965 10965 10966 10967 10965 10964 10963 10964 10964 10964 10963 10962 10960 10959 10958 10957 10955 10953
10960 10961 10962 10963 10964 10965 10965 10966 10967 10968 10969 10970 10971 10972 10972 10972 10973 10973 10973 10973 10973 10973 10972 10971 10971 10971 10971 10970 10969 10968 10968 10968 10967 10966 10966 10966 10966 10967 10967 10966 10965 10966 10966 10966 10966 10965 10965 10965 10964 10964 10964 10964 10964 10963 10963 10961 10959 10957 10957 10957 10958 10957 10955 10955 10955 10955 10955 10954 10953 10952 10951 10950 10950 10949
10952 10953 10954 10954 10955 10956 10957 10957 10958 10959 10959 10960 10961 10962 10963 10963 10964 10964 10965 10965 10964 10964 10963 10963 10962 10962 10962 10961 10961 10960 10960 10959 10958 10957 10957 10957 10958 10958 10958 10958 10958 10957 10957 10957 10958 10958 10958 10958 10957 10956 10956 10956 10956 10955 10955 10954 10952 10951 10949 10947 10948 10948 10948 10947 10947 10946 10946 10945 10944 10944 10943 10941 10941 10942
10944 10945 10945 10946 10946 10947 10948 10948 10949 10949 10950 10950 10951 10952 10953 10954 10955 10955 10956 10956 10955 10954 10954 10954 10954 10953 10952 10952 10952 10951 10951 10950 10949 10948 10948 10949 10948 10948 10948 10948 10948 10948 10948 10948 10948 10949 10949 10950 10950 10949 10948 10948 10948 10947 10947 10947 10945 10943 10942 10940 10939 10938 10938 10938 10938 10938 10937 10937 10936 10934 10933 10931 10931 10932
10935 10935 10936 10936 10937 10937 10938 10939 10940 10940 10940 10941 10941 10941 10942 10943 10944 10945 10946 10946 10944 10944 10945 10945 10944 10943 10943 10942 10942 10942 10941 10941 10939 10938 10938 10939 10938 10938 10937 10937 10937 10937 10938 10937 10937 10937 10938 10939 10940 10940 10939 10939 10938 10936 10937 10939 10938 10935 10933 10932 10932 10930 10928 10928 10929 10929 10928 10927 10928 10927 10924 10921 10919 10921
10925 10926 10927 10927 10927 10928 10928 10929 10930 10931 10931 10932 10931 10931 10932 10933 10933 10935 10935 10934 10933 10935 10936 10935 10933 10933 10933 10933 10932 10931 10930 10930 10929 10927 10926 10927 10927 10926 10926 10925 10925 10925 10926 10926 10926 10925 10926 10927 10928 10929 10929 10929 10928 10925 10923 10926 10929 10928 10924 10922 10922 10921 10920 10919 10918 10918 10917 10917 10918 10919 10918 10913 10909 10908
10914 10915 10916 10917 10918 10918 10919 10920 10921 10921 10921 10922 10922 10922 10923 10923 10923 10924 10924 10923 10923 10924 10925 10924 10922 10923 10924 10923 10922 10921 10920 10920 10918 10916 10915 10915 10915 10915 10914 10914 10913 10913 10913 10913 10913 10913 10913 10913 10914 10917 10919 10919 10918 10915 10911 10909 10912 10914 10915 10914 10912 10910 10910 10910 10909 10908 10907 10907 10907 10907 10908 10907 10901 10897
10902 10903 10904 10906 10906 10907 10907 10909 10910 10910 10911 10911 10912 10912 10913 10913 10914 10914 10914 10913 10914 10914 10914 10912 10912 10913 10912 10912 10911 10910 10909 10909 10908 10907 10905 10904 10903 10903 10903 10902 10901 10901 10901 10901 10900 10899 10900 10899 10899 10901 10905 10907 10908 10906 10903 10899 10895 10894 10897 10902 10903 10900 10897 10899 10900 10898 10896 10896 10896 10896 10897 10897 10894 10888
10890 10892 10893 10893 10893 10894 10895 10897 10898 10898 10899 10899 10900 10901 10901 10901 10902 10902 10901 10902 10903 10904 10902 10901 10901 10901 10901 10900 10899 10899 10898 10897 10896 10895 10894 10893 10892 10892 10891 10890 10889 10889 10888 10888 10887 10886 10886 10886 10886 10887 10889 10892 10894 10894 10894 10892 10887 10879 10875 10880 10887 10888 10885 10885 10887 10887 10885 10883 10883 10884 10885 10885 10884 10881
10877 10879 10879 10879 10880 10882 10883 10884 10884 10884 10884 10886 10887 10887 10888 10889 10888 10888 10888 10890 10891 10891 10890 10888 10888 10888 10888 10887 10886 10886 10885 10884 10883 10881 10881 10880 10880 10879 10878 10877 10877 10877 10876 10875 10874 10873 10872 10872 10872 10873 10874 10876 10878 10880 10881 10883 10880 10872 10864 10860 10864 10869 10871 10871 10872 10872 10872 10870 10869 10870 10870 10870 10871 10871
10864 10864 10863 10865 10867 10868 10869 10868 10867 10868 10869 10871 10872 10873 10874 10874 10873 10873 10874 10875 10877 10877 10876 10874 10874 10874 10874 10872 10872 10872 10871 10869 10868 10868 10867 10867 10866 10864 10863 10863 10863 10863 10863 10862 10861 10859 10858 10857 10857 10858 10859 10860 10861 10863 10865 10868 10868 10865 10859 10852 10848 10848 10850 10853 10856 10857 10857 10855 10854 10856 10856 10855 10855 10856
10847 10847 10848 10850 10852 10853 10852 10851 10851 10851 10853 10855 10856 10857 10857 10856 10856 10857 10859 10859 10860 10861 10860 10859 10859 10858 10857 10857 10857 10856 10854 10853 10853 10853 10853 10852 10851 10849 10848 10847 10847 10847 10847 10847 10846 10845 10844 10843 10843 10843 10843 10844 10844 10846 10848 10850 10850 10850 10848 10844 10840 10835 10833 10834 10835 10838 10841 10840 10839 10840 10841 10840 10841 10842
10829 10830 10832 10834 10835 10835 10834 10834 10834 10835 10837 10839 10840 10840 10839 10839 10839 10841 10842 10842 10843 10843 10843 10843 10843 10842 10840 10840 10839 10838 10836 10836 10837 10837 10836 10835 10835 10833 10832 10831 10830 10831 10831 10831 10831 10830 10829 10828 10828 10828 10827 10827 10827 10828 10830 10831 10832 10832 10831 10829 10827 10825 10822 10819 10817 10818 10821 10823 10823 10823 10824 10824 10826 10828
10813 10814 10815 10816 10816 10815 10815 10816 10818 10820 10821 10823 10823 10823 10822 10822 10823 10825 10825 10825 10825 10825 10825 10826 10825 10823 10822 10821 10821 10820 10820 10821 10821 10820 10819 10818 10817 10816 10815 10814 10813 10814 10815 10816 10816 10815 10814 10813 10812 10811 10811 10811 10809 10810 10812 10814 10814 10814 10814 10813 10812 10810 10808 10806 10804 10802 10801 10802 10803 10805 10807 10807 10809 10812
10797 10797 10797 10797 10796 10796 10797 10799 10801 10803 10804 10805 10806 10805 10805 10805 10807 10808 10808 10807 10808 10808 10807 10807 10805 10804 10802 10803 10803 10803 10803 10803 10803 10802 10802 10800 10799 10797 10796 10796 10796 10797 10797 10798 10799 10799 10799 10798 10797 10795 10795 10794 10792 10791 10793 10795 10795 10796 10796 10796 10795 10793 10791 10790 10789 10788 10787 10785 10782 10781 10784 10787 10789 10792
10781 10780 10779 10778 10778 10778 10780 10782 10783 10785 10786 10787 10787 10787 10787 10788 10789 10790 10790 10790 10790 10789 10787 10787 10786 10785 10785 10785 10785 10786 10785 10785 10784 10783 10783 10782 10780 10778 10778 10778 10779 10780 10779 10779 10780 10781 10781 10781 10780 10778 10777 10777 10775 10773 10773 10774 10775 10776 10777 10777 10775 10774 10772 10772 10772 10772 10774 10774 10768 10761 10760 10763 10765 10768